TimeCDT,TemperatureF,Dew PointF,Humidity,Sea Level PressureIn,VisibilityMPH,Wind Direction,Wind SpeedMPH,Gust SpeedMPH,PrecipitationIn,Events,Conditions,WindDirDegrees,DateUTC
12:52 AM,66.9,61.0,81,29.89,10.0,SE,5.8,-,N/A,,Clear,130,2013-10-02 05:52:00
1:52 AM,66.9,61.0,81,29.89,10.0,SE,8.1,-,N/A,,Clear,140,2013-10-02 06:52:00
2:52 AM,66.9,60.1,79,29.89,10.0,SSE,6.9,-,N/A,,Clear,150,2013-10-02 07:52:00
3:52 AM,66.0,61.0,84,29.88,10.0,SSE,8.1,-,N/A,,Clear,160,2013-10-02 08:52:00
4:52 AM,64.9,61.0,87,29.88,9.0,SSE,5.8,-,N/A,,Clear,150,2013-10-02 09:52:00
5:42 AM,64.4,60.8,88,29.95,6.0,SSE,5.8,-,N/A,,Scattered Clouds,150,2013-10-02 10:42:00
5:52 AM,64.9,62.1,90,29.89,6.0,SSE,4.6,-,N/A,,Mostly Cloudy,150,2013-10-02 10:52:00
6:22 AM,68.0,64.4,88,29.95,4.0,South,10.4,-,N/A,,Overcast,170,2013-10-02 11:22:00
6:52 AM,68.0,66.0,93,29.90,3.0,South,11.5,-,N/A,,Overcast,170,2013-10-02 11:52:00
7:07 AM,68.0,66.2,94,29.96,2.0,South,11.5,-,N/A,,Overcast,170,2013-10-02 12:07:00
7:17 AM,68.0,66.2,94,29.96,1.8,South,11.5,-,N/A,,Overcast,170,2013-10-02 12:17:00
7:33 AM,68.0,66.2,94,29.96,2.0,South,11.5,-,N/A,,Overcast,170,2013-10-02 12:33:00
7:52 AM,68.0,66.0,93,29.90,1.8,South,11.5,-,N/A,,Overcast,170,2013-10-02 12:52:00
8:03 AM,68.0,66.2,94,29.96,2.0,South,10.4,-,N/A,,Overcast,180,2013-10-02 13:03:00
8:18 AM,69.8,66.2,88,29.97,3.0,South,13.8,-,N/A,,Overcast,170,2013-10-02 13:18:00
8:31 AM,69.8,66.2,88,29.97,4.0,South,10.4,-,N/A,,Overcast,170,2013-10-02 13:31:00
8:52 AM,70.0,66.0,87,29.91,4.0,South,11.5,-,N/A,,Overcast,170,2013-10-02 13:52:00
9:10 AM,69.8,66.2,88,29.97,2.5,South,11.5,-,N/A,,Overcast,170,2013-10-02 14:10:00
9:17 AM,69.8,66.2,88,29.97,3.0,SSE,13.8,-,N/A,,Overcast,160,2013-10-02 14:17:00
9:52 AM,71.1,66.9,87,29.92,5.0,SSE,15.0,20.7,N/A,,Overcast,160,2013-10-02 14:52:00
10:29 AM,73.4,66.2,78,29.97,7.0,SSE,16.1,-,N/A,,Overcast,150,2013-10-02 15:29:00
10:47 AM,73.4,66.2,78,29.97,7.0,South,13.8,-,N/A,,Overcast,170,2013-10-02 15:47:00
10:52 AM,73.0,66.9,81,29.91,6.0,SSE,15.0,-,N/A,,Haze,150,2013-10-02 15:52:00
11:37 AM,75.2,66.2,73,29.96,7.0,South,19.6,-,N/A,,Overcast,170,2013-10-02 16:37:00
11:52 AM,77.0,66.9,71,29.89,8.0,SSE,19.6,26.5,N/A,,Overcast,160,2013-10-02 16:52:00
12:52 PM,78.1,66.9,68,29.87,10.0,South,19.6,26.5,N/A,,Overcast,170,2013-10-02 17:52:00
1:52 PM,80.1,66.9,64,29.84,10.0,SSE,15.0,-,N/A,,Overcast,160,2013-10-02 18:52:00
2:39 PM,82.4,66.2,58,29.88,10.0,South,20.7,26.5,N/A,,Overcast,170,2013-10-02 19:39:00
2:52 PM,84.0,66.9,56,29.81,10.0,SSE,20.7,26.5,N/A,,Overcast,160,2013-10-02 19:52:00
3:52 PM,82.9,66.0,56,29.79,10.0,South,23.0,-,N/A,,Partly Cloudy,170,2013-10-02 20:52:00
4:52 PM,82.9,66.0,56,29.78,10.0,South,20.7,26.5,N/A,,Scattered Clouds,180,2013-10-02 21:52:00
5:52 PM,82.0,66.0,58,29.78,10.0,SSE,13.8,20.7,N/A,,Scattered Clouds,160,2013-10-02 22:52:00
6:52 PM,79.0,66.0,64,29.78,10.0,SSE,12.7,-,N/A,,Partly Cloudy,160,2013-10-02 23:52:00
7:52 PM,75.9,66.0,71,29.79,10.0,SSE,10.4,-,N/A,,Clear,150,2013-10-03 00:52:00
8:52 PM,75.9,66.0,71,29.80,10.0,SE,11.5,-,N/A,,Mostly Cloudy,140,2013-10-03 01:52:00
9:52 PM,75.0,66.0,73,29.80,10.0,SE,12.7,-,N/A,,Overcast,140,2013-10-03 02:52:00
10:52 PM,75.0,66.0,73,29.80,10.0,SSE,11.5,-,N/A,,Overcast,150,2013-10-03 03:52:00
11:52 PM,75.0,64.9,71,29.78,10.0,SSE,16.1,23.0,N/A,,Mostly Cloudy,160,2013-10-03 04:52:00